Location: ???????
(55.4362°N, 38.1183°E)
Time: 16:55:36
(UTC+00:00)

Cosmos 2333 Rocket - Pass Details

Date: 28 October 2021
Orbit: 837 x 865 km, 70.8° (Epoch: 04 December)

Event Time Altitude Azimuth Distance (km) Brightness Sun altitude
Rises 15:52:04 0° 186° (S) 3,392 5.4 -16.7°
Reaches altitude 10° 15:54:37 10° 179° (S) 2,465 4.6 -17.1°
Maximum altitude 15:59:52 41° 111° (ESE) 1,219 2.6 -17.8°
Enters shadow 16:02:36 25° 59° (ENE) 1,657 3.3 -18.2°
